Time,TemperatureF,DewpointF,PressureIn,WindDirection,WindDirectionDegrees,WindSpeedMPH,WindSpeedGustMPH,Humidity,HourlyPrecipIn,Conditions,Clouds,dailyrainin,SoftwareType,DateUTC
2013-08-05 00:00:00,55.8,55.2,30.05,WNW,302,0.0,0.0,98,0.00,,---,0.00,VWS V14.01,2013-08-05 04:00:00,
2013-08-05 00:01:00,55.8,55.2,30.06,WNW,301,0.0,0.0,98,0.00,,---,0.00,VWS V14.01,2013-08-05 04:01:00,
2013-08-05 00:02:00,55.9,55.3,30.06,WNW,300,0.0,1.0,98,0.00,,---,0.00,VWS V14.01,2013-08-05 04:02:00,
2013-08-05 00:07:00,55.6,55.0,30.06,ESE,117,1.0,2.0,98,0.00,,---,0.00,VWS V14.01,2013-08-05 04:07:00,
2013-08-05 00:13:00,55.3,54.8,30.06,ESE,117,0.0,2.0,98,0.00,,---,0.00,VWS V14.01,2013-08-05 04:13:00,
2013-08-05 00:18:00,55.2,54.7,30.06,SSE,148,0.0,2.0,98,0.00,,---,0.00,VWS V14.01,2013-08-05 04:18:00,
2013-08-05 00:23:00,55.2,54.7,30.05,SE,146,0.0,2.0,98,0.00,,---,0.00,VWS V14.01,2013-08-05 04:23:00,
2013-08-05 00:28:00,55.2,54.9,30.05,SE,146,1.0,2.0,99,0.00,,---,0.00,VWS V14.01,2013-08-05 04:28:00,
2013-08-05 00:33:00,55.1,54.5,30.05,SSE,147,0.0,0.0,98,0.00,,---,0.00,VWS V14.01,2013-08-05 04:33:00,
2013-08-05 00:38:00,55.0,54.7,30.06,SE,146,0.0,0.0,99,0.00,,---,0.00,VWS V14.01,2013-08-05 04:38:00,
2013-08-05 00:42:00,55.0,54.7,30.06,SSE,148,0.0,0.0,99,0.00,,---,0.00,VWS V14.01,2013-08-05 04:42:00,
2013-08-05 00:47:00,55.1,54.8,30.06,SE,146,0.0,0.0,99,0.00,,---,0.00,VWS V14.01,2013-08-05 04:47:00,
2013-08-05 00:53:00,55.2,54.9,30.06,SE,146,0.0,0.0,99,0.00,,---,0.00,VWS V14.01,2013-08-05 04:53:00,
2013-08-05 00:58:00,55.2,54.9,30.06,SE,146,0.0,0.0,99,0.00,,---,0.00,VWS V14.01,2013-08-05 04:58:00,
2013-08-05 01:02:00,55.3,55.0,30.06,SE,146,0.0,0.0,99,0.00,,---,0.00,VWS V14.01,2013-08-05 05:02:00,
2013-08-05 01:07:00,55.2,54.9,30.06,SE,146,0.0,0.0,99,0.00,,---,0.00,VWS V14.01,2013-08-05 05:07:00,
2013-08-05 01:08:00,55.2,54.9,30.06,SE,146,0.0,0.0,99,0.00,,---,0.00,VWS V14.01,2013-08-05 05:08:00,
2013-08-05 01:13:00,55.1,54.8,30.06,SE,146,0.0,0.0,99,0.00,,---,0.00,VWS V14.01,2013-08-05 05:13:00,
2013-08-05 01:18:00,55.1,54.8,30.05,SE,146,0.0,0.0,99,0.00,,---,0.00,VWS V14.01,2013-08-05 05:18:00,
2013-08-05 01:23:00,55.0,54.7,30.05,SE,146,0.0,0.0,99,0.00,,---,0.00,VWS V14.01,2013-08-05 05:23:00,
2013-08-05 01:28:00,54.9,54.6,30.06,SE,146,0.0,0.0,99,0.00,,---,0.00,VWS V14.01,2013-08-05 05:28:00,
2013-08-05 01:33:00,55.0,54.7,30.05,SE,146,0.0,0.0,99,0.00,,---,0.00,VWS V14.01,2013-08-05 05:33:00,
2013-08-05 01:38:00,55.0,54.7,30.06,SE,146,0.0,0.0,99,0.00,,---,0.00,VWS V14.01,2013-08-05 05:38:00,
2013-08-05 01:43:00,54.8,54.5,30.05,SE,146,0.0,0.0,99,0.00,,---,0.00,VWS V14.01,2013-08-05 05:43:00,
2013-08-05 01:48:00,54.7,54.4,30.05,SE,146,0.0,0.0,99,0.00,,---,0.00,VWS V14.01,2013-08-05 05:48:00,
2013-08-05 01:53:00,54.7,54.4,30.06,SSE,147,0.0,0.0,99,0.00,,---,0.00,VWS V14.01,2013-08-05 05:53:00,
2013-08-05 01:58:00,54.8,54.5,30.06,SE,145,0.0,1.0,99,0.00,,---,0.00,VWS V14.01,2013-08-05 05:58:00,
2013-08-05 02:03:00,54.9,54.6,30.06,SE,136,1.0,1.0,99,0.00,,---,0.00,VWS V14.01,2013-08-05 06:03:00,
2013-08-05 02:08:00,54.9,54.6,30.06,SE,135,0.0,1.0,99,0.00,,---,0.00,VWS V14.01,2013-08-05 06:08:00,
2013-08-05 02:13:00,55.0,54.7,30.06,SE,136,0.0,1.0,99,0.00,,---,0.00,VWS V14.01,2013-08-05 06:13:00,
2013-08-05 02:18:00,55.1,54.8,30.06,SE,136,0.0,1.0,99,0.00,,---,0.00,VWS V14.01,2013-08-05 06:18:00,
2013-08-05 02:23:00,55.2,55.2,30.06,SE,136,0.0,1.0,100,0.00,,---,0.00,VWS V14.01,2013-08-05 06:23:00,
2013-08-05 02:28:00,55.4,55.4,30.06,SE,136,0.0,1.0,100,0.00,,---,0.00,VWS V14.01,2013-08-05 06:28:00,
2013-08-05 02:34:00,55.5,55.5,30.05,SE,136,0.0,0.0,100,0.00,,---,0.00,VWS V14.01,2013-08-05 06:34:00,
2013-08-05 02:39:00,55.5,55.2,30.05,SE,136,0.0,0.0,99,0.00,,---,0.00,VWS V14.01,2013-08-05 06:39:00,
2013-08-05 02:43:00,55.6,55.6,30.05,SE,136,0.0,1.0,100,0.00,,---,0.00,VWS V14.01,2013-08-05 06:43:00,
2013-08-05 02:48:00,55.5,55.2,30.05,SE,136,0.0,1.0,99,0.00,,---,0.00,VWS V14.01,2013-08-05 06:48:00,
2013-08-05 02:54:00,55.1,54.8,30.05,SE,136,0.0,1.0,99,0.00,,---,0.00,VWS V14.01,2013-08-05 06:54:00,
2013-08-05 02:59:00,54.8,54.5,30.05,SE,136,0.0,1.0,99,0.00,,---,0.00,VWS V14.01,2013-08-05 06:59:00,
2013-08-05 03:04:00,54.5,54.2,30.05,SE,136,0.0,0.0,99,0.00,,---,0.00,VWS V14.01,2013-08-05 07:04:00,
2013-08-05 03:09:00,54.2,53.9,30.05,SE,136,0.0,0.0,99,0.00,,---,0.00,VWS V14.01,2013-08-05 07:09:00,
2013-08-05 03:13:00,54.0,53.7,30.06,SE,136,0.0,0.0,99,0.00,,---,0.00,VWS V14.01,2013-08-05 07:13:00,
2013-08-05 03:19:00,53.9,53.6,30.06,SE,136,0.0,0.0,99,0.00,,---,0.00,VWS V14.01,2013-08-05 07:19:00,
2013-08-05 03:24:00,53.7,53.4,30.06,SE,136,0.0,0.0,99,0.00,,---,0.00,VWS V14.01,2013-08-05 07:24:00,
2013-08-05 03:29:00,53.9,53.6,30.06,SE,136,0.0,0.0,99,0.00,,---,0.00,VWS V14.01,2013-08-05 07:29:00,
2013-08-05 03:34:00,54.3,54.3,30.06,SE,136,0.0,0.0,100,0.00,,---,0.00,VWS V14.01,2013-08-05 07:34:00,
2013-08-05 03:39:00,54.5,54.5,30.06,SE,136,0.0,1.0,100,0.00,,---,0.00,VWS V14.01,2013-08-05 07:39:00,
2013-08-05 03:44:00,54.3,54.3,30.05,SE,136,0.0,1.0,100,0.00,,---,0.00,VWS V14.01,2013-08-05 07:44:00,
2013-08-05 03:49:00,54.2,54.2,30.05,SE,136,0.0,1.0,100,0.00,,---,0.00,VWS V14.01,2013-08-05 07:49:00,
2013-08-05 03:54:00,54.1,53.8,30.05,SE,136,0.0,1.0,99,0.00,,---,0.00,VWS V14.01,2013-08-05 07:54:00,
2013-08-05 03:59:00,54.1,54.1,30.05,SE,136,0.0,1.0,100,0.00,,---,0.00,VWS V14.01,2013-08-05 07:59:00,
2013-08-05 04:04:00,54.0,54.0,30.05,SE,136,0.0,0.0,100,0.00,,---,0.00,VWS V14.01,2013-08-05 08:04:00,
2013-08-05 04:09:00,53.9,53.9,30.05,SE,136,0.0,0.0,100,0.00,,---,0.00,VWS V14.01,2013-08-05 08:09:00,
2013-08-05 04:14:00,53.8,53.8,30.05,SE,136,0.0,0.0,100,0.00,,---,0.00,VWS V14.01,2013-08-05 08:14:00,
2013-08-05 04:18:00,54.1,54.1,30.05,SE,136,0.0,1.0,100,0.00,,---,0.00,VWS V14.01,2013-08-05 08:18:00,
2013-08-05 04:24:00,54.2,54.2,30.05,SE,136,0.0,1.0,100,0.00,,---,0.00,VWS V14.01,2013-08-05 08:24:00,
2013-08-05 04:29:00,54.3,54.3,30.05,SE,129,1.0,1.0,100,0.00,,---,0.00,VWS V14.01,2013-08-05 08:29:00,
2013-08-05 04:34:00,54.1,54.1,30.04,ESE,116,1.0,2.0,100,0.00,,---,0.00,VWS V14.01,2013-08-05 08:34:00,
2013-08-05 04:39:00,53.9,53.9,30.05,ESE,115,0.0,2.0,100,0.00,,---,0.00,VWS V14.01,2013-08-05 08:39:00,
2013-08-05 04:44:00,53.6,53.3,30.05,ESE,115,0.0,2.0,99,0.00,,---,0.00,VWS V14.01,2013-08-05 08:44:00,
2013-08-05 04:49:00,53.4,53.1,30.05,ESE,115,0.0,2.0,99,0.00,,---,0.00,VWS V14.01,2013-08-05 08:49:00,
2013-08-05 04:54:00,53.2,53.2,30.05,ESE,115,0.0,2.0,100,0.00,,---,0.00,VWS V14.01,2013-08-05 08:54:00,
2013-08-05 04:59:00,53.2,53.2,30.04,ESE,115,0.0,0.0,100,0.00,,---,0.00,VWS V14.01,2013-08-05 08:59:00,
2013-08-05 05:05:00,53.3,53.3,30.05,ESE,115,0.0,0.0,100,0.00,,---,0.00,VWS V14.01,2013-08-05 09:05:00,
2013-08-05 05:09:00,53.2,53.2,30.05,ESE,116,0.0,0.0,100,0.00,,---,0.00,VWS V14.01,2013-08-05 09:09:00,
2013-08-05 05:15:00,53.2,53.2,30.05,ESE,115,0.0,0.0,100,0.00,,---,0.00,VWS V14.01,2013-08-05 09:15:00,
2013-08-05 05:20:00,53.3,53.3,30.05,ESE,115,0.0,0.0,100,0.00,,---,0.00,VWS V14.01,2013-08-05 09:20:00,
2013-08-05 05:25:00,53.3,53.3,30.04,ESE,115,0.0,0.0,100,0.00,,---,0.00,VWS V14.01,2013-08-05 09:25:00,
2013-08-05 05:30:00,52.9,52.9,30.04,ESE,116,0.0,0.0,100,0.00,,---,0.00,VWS V14.01,2013-08-05 09:30:00,
2013-08-05 05:35:00,52.8,52.8,30.04,ESE,115,0.0,0.0,100,0.00,,---,0.00,VWS V14.01,2013-08-05 09:35:00,
2013-08-05 05:40:00,52.4,52.4,30.04,ESE,116,0.0,0.0,100,0.00,,---,0.00,VWS V14.01,2013-08-05 09:40:00,
2013-08-05 05:46:00,52.0,51.7,30.04,ESE,116,0.0,0.0,99,0.00,,---,0.00,VWS V14.01,2013-08-05 09:46:00,
2013-08-05 05:51:00,52.0,52.0,30.05,ESE,115,1.0,1.0,100,0.00,,---,0.00,VWS V14.01,2013-08-05 09:51:00,
2013-08-05 05:56:00,51.7,51.7,30.05,ESE,116,0.0,1.0,100,0.00,,---,0.00,VWS V14.01,2013-08-05 09:56:00,
2013-08-05 06:00:00,51.7,51.7,30.05,ESE,115,0.0,0.0,100,0.00,,---,0.00,VWS V14.01,2013-08-05 10:00:00,
2013-08-05 06:05:00,51.7,51.7,30.05,ESE,115,0.0,0.0,100,0.00,,---,0.00,VWS V14.01,2013-08-05 10:05:00,
2013-08-05 06:11:00,51.8,51.8,30.06,ESE,116,0.0,0.0,100,0.00,,---,0.00,VWS V14.01,2013-08-05 10:11:00,
2013-08-05 06:16:00,51.7,51.7,30.06,ESE,115,0.0,0.0,100,0.00,,---,0.00,VWS V14.01,2013-08-05 10:16:00,
2013-08-05 06:21:00,51.5,51.5,30.06,ESE,115,0.0,0.0,100,0.00,,---,0.00,VWS V14.01,2013-08-05 10:21:00,
2013-08-05 06:26:00,51.3,51.3,30.06,ESE,116,0.0,0.0,100,0.00,,---,0.00,VWS V14.01,2013-08-05 10:26:00,
2013-08-05 06:32:00,51.3,51.3,30.06,ESE,115,0.0,0.0,100,0.00,,---,0.00,VWS V14.01,2013-08-05 10:32:00,
2013-08-05 06:36:00,51.3,51.3,30.06,ESE,116,0.0,0.0,100,0.00,,---,0.00,VWS V14.01,2013-08-05 10:36:00,
2013-08-05 06:41:00,51.2,51.2,30.06,ESE,115,0.0,0.0,100,0.00,,---,0.00,VWS V14.01,2013-08-05 10:41:00,
2013-08-05 06:47:00,51.4,51.4,30.06,ESE,115,0.0,0.0,100,0.00,,---,0.00,VWS V14.01,2013-08-05 10:47:00,
2013-08-05 06:52:00,51.4,51.4,30.06,ESE,115,0.0,0.0,100,0.00,,---,0.00,VWS V14.01,2013-08-05 10:52:00,
2013-08-05 06:57:00,51.4,51.4,30.06,ESE,116,0.0,0.0,100,0.00,,---,0.00,VWS V14.01,2013-08-05 10:57:00,
2013-08-05 07:02:00,51.5,51.5,30.06,ESE,116,1.0,1.0,100,0.00,,---,0.00,VWS V14.01,2013-08-05 11:02:00,
2013-08-05 07:07:00,51.6,51.6,30.06,ESE,122,1.0,2.0,100,0.00,,---,0.00,VWS V14.01,2013-08-05 11:07:00,
2013-08-05 07:13:00,51.9,51.9,30.06,South,183,0.0,2.0,100,0.00,,---,0.00,VWS V14.01,2013-08-05 11:13:00,
2013-08-05 07:18:00,52.2,52.2,30.06,SSW,200,0.0,2.0,100,0.00,,---,0.00,VWS V14.01,2013-08-05 11:18:00,
2013-08-05 07:23:00,52.4,52.4,30.07,ESE,120,0.0,2.0,100,0.00,,---,0.00,VWS V14.01,2013-08-05 11:23:00,
2013-08-05 07:28:00,52.5,52.5,30.07,ESE,116,0.0,2.0,100,0.00,,---,0.00,VWS V14.01,2013-08-05 11:28:00,
2013-08-05 07:33:00,52.6,52.6,30.07,ESE,115,0.0,0.0,100,0.00,,---,0.00,VWS V14.01,2013-08-05 11:33:00,
2013-08-05 07:38:00,52.8,52.8,30.07,ESE,115,0.0,0.0,100,0.00,,---,0.00,VWS V14.01,2013-08-05 11:38:00,
2013-08-05 07:43:00,53.1,53.1,30.07,ESE,115,0.0,0.0,100,0.00,,---,0.00,VWS V14.01,2013-08-05 11:43:00,
2013-08-05 07:48:00,53.5,53.5,30.07,ESE,110,0.0,2.0,100,0.00,,---,0.00,VWS V14.01,2013-08-05 11:48:00,
2013-08-05 07:53:00,53.9,53.9,30.07,ESE,115,1.0,2.0,100,0.00,,---,0.00,VWS V14.01,2013-08-05 11:53:00,
2013-08-05 07:58:00,54.4,54.4,30.07,ESE,105,1.0,3.0,100,0.00,,---,0.00,VWS V14.01,2013-08-05 11:58:00,
2013-08-05 08:03:00,55.0,55.0,30.07,ESE,107,0.0,4.0,100,0.01,,---,0.01,VWS V14.01,2013-08-05 12:03:00,
2013-08-05 08:08:00,55.8,55.8,30.08,ENE,70,1.0,4.0,100,0.01,,---,0.01,VWS V14.01,2013-08-05 12:08:00,
2013-08-05 08:13:00,56.4,56.4,30.08,ESE,106,0.0,4.0,100,0.01,,---,0.01,VWS V14.01,2013-08-05 12:13:00,
2013-08-05 08:18:00,56.8,56.8,30.08,ENE,61,1.0,4.0,100,0.01,,---,0.01,VWS V14.01,2013-08-05 12:18:00,
2013-08-05 08:23:00,57.3,57.3,30.08,ESE,107,1.0,4.0,100,0.01,,---,0.01,VWS V14.01,2013-08-05 12:23:00,
2013-08-05 08:28:00,57.9,57.9,30.08,East,85,2.0,4.0,100,0.01,,---,0.01,VWS V14.01,2013-08-05 12:28:00,
2013-08-05 08:33:00,58.2,58.2,30.08,East,101,1.0,3.0,100,0.01,,---,0.01,VWS V14.01,2013-08-05 12:33:00,
2013-08-05 08:38:00,58.4,58.1,30.07,ESE,113,3.0,4.0,99,0.01,,---,0.01,VWS V14.01,2013-08-05 12:38:00,
2013-08-05 08:43:00,59.0,58.7,30.07,SE,126,3.0,4.0,99,0.01,,---,0.01,VWS V14.01,2013-08-05 12:43:00,
2013-08-05 08:49:00,59.6,58.8,30.07,ESE,118,2.0,4.0,97,0.01,,---,0.01,VWS V14.01,2013-08-05 12:49:00,
2013-08-05 08:54:00,60.4,59.3,30.08,ESE,113,1.0,4.0,96,0.01,,---,0.01,VWS V14.01,2013-08-05 12:54:00,
2013-08-05 08:59:00,61.2,59.2,30.07,ENE,71,3.0,4.0,93,0.01,,---,0.01,VWS V14.01,2013-08-05 12:59:00,
2013-08-05 09:04:00,61.8,59.2,30.07,East,79,1.0,3.0,91,0.01,,---,0.01,VWS V14.01,2013-08-05 13:04:00,
2013-08-05 09:09:00,62.5,59.2,30.08,East,84,1.0,3.0,89,0.01,,---,0.01,VWS V14.01,2013-08-05 13:09:00,
2013-08-05 09:14:00,62.9,59.0,30.08,NNE,30,0.0,3.0,87,0.01,,---,0.01,VWS V14.01,2013-08-05 13:14:00,
2013-08-05 09:19:00,63.5,58.9,30.08,SSW,207,0.0,3.0,85,0.01,,---,0.01,VWS V14.01,2013-08-05 13:19:00,
2013-08-05 09:24:00,63.8,58.5,30.08,SE,146,0.0,3.0,83,0.01,,---,0.01,VWS V14.01,2013-08-05 13:24:00,
2013-08-05 09:29:00,64.1,57.8,30.08,ESE,123,0.0,3.0,80,0.01,,---,0.01,VWS V14.01,2013-08-05 13:29:00,
2013-08-05 09:34:00,64.1,57.8,30.08,ESE,110,1.0,2.0,80,0.00,,---,0.01,VWS V14.01,2013-08-05 13:34:00,
2013-08-05 09:40:00,64.2,58.6,30.08,ESE,121,0.0,2.0,82,0.00,,---,0.01,VWS V14.01,2013-08-05 13:40:00,
2013-08-05 09:45:00,64.3,57.7,30.08,ENE,68,0.0,2.0,79,0.00,,---,0.01,VWS V14.01,2013-08-05 13:45:00,
2013-08-05 09:50:00,65.1,59.1,30.08,ENE,77,1.0,2.0,81,0.00,,---,0.01,VWS V14.01,2013-08-05 13:50:00,
2013-08-05 09:55:00,65.8,58.8,30.08,ESE,110,0.0,2.0,78,0.00,,---,0.01,VWS V14.01,2013-08-05 13:55:00,
2013-08-05 10:00:00,66.1,58.0,30.08,East,86,2.0,2.0,75,0.00,,---,0.01,VWS V14.01,2013-08-05 14:00:00,
2013-08-05 10:05:00,65.7,57.2,30.08,SE,124,0.0,3.0,74,0.00,,---,0.01,VWS V14.01,2013-08-05 14:05:00,
2013-08-05 10:10:00,66.3,58.5,30.08,SE,130,0.0,3.0,76,0.00,,---,0.01,VWS V14.01,2013-08-05 14:10:00,
2013-08-05 10:16:00,66.3,58.5,30.08,East,84,2.0,3.0,76,0.00,,---,0.01,VWS V14.01,2013-08-05 14:16:00,
2013-08-05 10:21:00,65.9,58.5,30.08,ESE,105,0.0,3.0,77,0.00,,---,0.01,VWS V14.01,2013-08-05 14:21:00,
2013-08-05 10:26:00,66.3,59.6,30.08,ENE,71,1.0,3.0,79,0.00,,---,0.01,VWS V14.01,2013-08-05 14:26:00,
2013-08-05 10:32:00,66.9,58.3,30.08,SE,133,3.0,4.0,74,0.00,,---,0.01,VWS V14.01,2013-08-05 14:32:00,
2013-08-05 10:37:00,66.5,58.7,30.08,SE,134,1.0,4.0,76,0.00,,---,0.01,VWS V14.01,2013-08-05 14:37:00,
2013-08-05 10:42:00,66.6,58.4,30.08,SE,139,2.0,4.0,75,0.00,,---,0.01,VWS V14.01,2013-08-05 14:42:00,
2013-08-05 10:47:00,66.4,59.0,30.08,ENE,70,2.0,6.0,77,0.00,,---,0.01,VWS V14.01,2013-08-05 14:47:00,
2013-08-05 10:52:00,66.4,59.7,30.08,SE,127,5.0,6.0,79,0.00,,---,0.01,VWS V14.01,2013-08-05 14:52:00,
2013-08-05 10:57:00,66.3,58.5,30.08,ESE,120,7.0,7.0,76,0.00,,---,0.01,VWS V14.01,2013-08-05 14:57:00,
2013-08-05 11:03:00,66.2,58.4,30.08,ESE,106,4.0,6.0,76,0.00,,---,0.01,VWS V14.01,2013-08-05 15:03:00,
2013-08-05 11:08:00,65.9,57.8,30.07,SE,134,2.0,7.0,75,0.00,,---,0.01,VWS V14.01,2013-08-05 15:08:00,
2013-08-05 11:13:00,66.2,58.0,30.07,ESE,110,3.0,7.0,75,0.00,,---,0.01,VWS V14.01,2013-08-05 15:13:00,
2013-08-05 11:18:00,66.8,57.9,30.07,SE,127,4.0,7.0,73,0.00,,---,0.01,VWS V14.01,2013-08-05 15:18:00,
2013-08-05 11:23:00,67.2,58.3,30.07,NNE,26,3.0,8.0,73,0.00,,---,0.01,VWS V14.01,2013-08-05 15:23:00,
2013-08-05 11:28:00,68.0,59.8,30.07,SE,131,5.0,8.0,75,0.00,,---,0.01,VWS V14.01,2013-08-05 15:28:00,
2013-08-05 11:33:00,67.8,58.5,30.06,ENE,70,4.0,9.0,72,0.00,,---,0.01,VWS V14.01,2013-08-05 15:33:00,
2013-08-05 11:38:00,67.9,59.7,30.06,ENE,74,2.0,9.0,75,0.00,,---,0.01,VWS V14.01,2013-08-05 15:38:00,
2013-08-05 11:43:00,67.9,58.5,30.06,SE,135,4.0,9.0,72,0.00,,---,0.01,VWS V14.01,2013-08-05 15:43:00,
2013-08-05 11:48:00,67.7,59.1,30.06,ESE,110,3.0,9.0,74,0.00,,---,0.01,VWS V14.01,2013-08-05 15:48:00,
2013-08-05 11:53:00,67.5,58.9,30.06,ESE,117,2.0,9.0,74,0.00,,---,0.01,VWS V14.01,2013-08-05 15:53:00,
2013-08-05 11:58:00,67.8,59.2,30.05,NNE,18,4.0,9.0,74,0.00,,---,0.01,VWS V14.01,2013-08-05 15:58:00,
2013-08-05 12:03:00,67.5,58.2,30.05,NE,53,2.0,3.0,72,0.00,,---,0.01,VWS V14.01,2013-08-05 16:03:00,
2013-08-05 12:08:00,67.6,59.0,30.05,ESE,116,3.0,6.0,74,0.00,,---,0.01,VWS V14.01,2013-08-05 16:08:00,
2013-08-05 12:14:00,67.7,59.1,30.05,East,80,2.0,6.0,74,0.00,,---,0.01,VWS V14.01,2013-08-05 16:14:00,
2013-08-05 12:19:00,68.0,59.8,30.05,North,11,1.0,6.0,75,0.00,,---,0.01,VWS V14.01,2013-08-05 16:19:00,
2013-08-05 12:24:00,68.2,59.6,30.05,SSE,165,0.0,6.0,74,0.00,,---,0.01,VWS V14.01,2013-08-05 16:24:00,
2013-08-05 12:29:00,68.0,59.0,30.05,SE,130,1.0,6.0,73,0.00,,---,0.01,VWS V14.01,2013-08-05 16:29:00,
2013-08-05 12:33:00,67.5,59.7,30.04,ESE,103,2.0,6.0,76,0.00,,---,0.01,VWS V14.01,2013-08-05 16:33:00,
2013-08-05 12:39:00,67.3,59.5,30.04,SE,126,5.0,6.0,76,0.00,,---,0.01,VWS V14.01,2013-08-05 16:39:00,
2013-08-05 12:44:00,67.9,59.7,30.04,ENE,78,0.0,6.0,75,0.00,,---,0.01,VWS V14.01,2013-08-05 16:44:00,
2013-08-05 12:49:00,68.0,59.8,30.04,SSW,210,0.0,6.0,75,0.00,,---,0.01,VWS V14.01,2013-08-05 16:49:00,
2013-08-05 12:55:00,68.9,60.7,30.04,ESE,114,3.0,7.0,75,0.00,,---,0.01,VWS V14.01,2013-08-05 16:55:00,
2013-08-05 13:00:00,69.5,60.5,30.03,SE,127,0.0,1.0,73,0.00,,---,0.01,VWS V14.01,2013-08-05 17:00:00,
2013-08-05 13:04:00,70.1,60.7,30.04,East,100,2.0,8.0,72,0.00,,---,0.01,VWS V14.01,2013-08-05 17:04:00,
2013-08-05 13:09:00,70.3,60.9,30.04,SE,130,3.0,8.0,72,0.00,,---,0.01,VWS V14.01,2013-08-05 17:09:00,
2013-08-05 13:15:00,70.3,60.9,30.03,SSE,158,3.0,8.0,72,0.00,,---,0.01,VWS V14.01,2013-08-05 17:15:00,
2013-08-05 13:19:00,70.3,59.7,30.03,West,280,2.0,8.0,69,0.00,,---,0.01,VWS V14.01,2013-08-05 17:19:00,
2013-08-05 13:25:00,70.3,60.9,30.02,ESE,115,0.0,8.0,72,0.00,,---,0.01,VWS V14.01,2013-08-05 17:25:00,
2013-08-05 13:29:00,70.6,60.0,30.02,SSW,212,1.0,2.0,69,0.00,,---,0.01,VWS V14.01,2013-08-05 17:29:00,
2013-08-05 13:34:00,70.3,60.1,30.02,West,278,0.0,2.0,70,0.00,,---,0.01,VWS V14.01,2013-08-05 17:34:00,
2013-08-05 13:39:00,70.3,59.7,30.02,NNW,333,1.0,2.0,69,0.00,,---,0.01,VWS V14.01,2013-08-05 17:39:00,
2013-08-05 13:45:00,70.3,60.1,30.01,NW,314,1.0,2.0,70,0.00,,---,0.01,VWS V14.01,2013-08-05 17:45:00,
2013-08-05 13:50:00,70.9,61.4,30.01,WNW,283,0.0,2.0,72,0.00,,---,0.01,VWS V14.01,2013-08-05 17:50:00,
2013-08-05 13:55:00,71.5,62.4,30.01,NE,56,3.0,5.0,73,0.00,,---,0.01,VWS V14.01,2013-08-05 17:55:00,
2013-08-05 14:00:00,71.2,60.5,30.01,ENE,60,2.0,2.0,69,0.00,,---,0.01,VWS V14.01,2013-08-05 18:00:00,
2013-08-05 14:05:00,71.4,59.9,30.01,NW,319,0.0,4.0,67,0.00,,---,0.01,VWS V14.01,2013-08-05 18:05:00,
2013-08-05 14:10:00,71.3,59.8,30.01,NW,315,1.0,4.0,67,0.00,,---,0.01,VWS V14.01,2013-08-05 18:10:00,
2013-08-05 14:15:00,71.4,61.5,30.00,NE,49,3.0,5.0,71,0.00,,---,0.01,VWS V14.01,2013-08-05 18:15:00,
2013-08-05 14:20:00,71.8,62.3,30.00,WNW,289,1.0,5.0,72,0.00,,---,0.01,VWS V14.01,2013-08-05 18:20:00,
2013-08-05 14:25:00,72.6,61.9,30.00,NNW,330,1.0,5.0,69,0.00,,---,0.01,VWS V14.01,2013-08-05 18:25:00,
2013-08-05 14:30:00,72.8,60.8,30.00,West,269,1.0,3.0,66,0.00,,---,0.01,VWS V14.01,2013-08-05 18:30:00,
2013-08-05 14:35:00,72.4,60.8,30.00,SW,221,1.0,3.0,67,0.00,,---,0.01,VWS V14.01,2013-08-05 18:35:00,
2013-08-05 14:40:00,72.2,61.1,30.00,South,188,0.0,3.0,68,0.00,,---,0.01,VWS V14.01,2013-08-05 18:40:00,
2013-08-05 14:45:00,72.9,60.5,30.00,SW,233,2.0,4.0,65,0.00,,---,0.01,VWS V14.01,2013-08-05 18:45:00,
2013-08-05 14:51:00,73.4,59.6,30.00,South,176,1.0,5.0,62,0.00,,---,0.01,VWS V14.01,2013-08-05 18:51:00,
2013-08-05 14:56:00,74.2,61.2,29.99,North,352,2.0,6.0,64,0.00,,---,0.01,VWS V14.01,2013-08-05 18:56:00,
2013-08-05 15:02:00,73.4,62.6,29.99,SW,226,2.0,2.0,69,0.00,,---,0.01,VWS V14.01,2013-08-05 19:02:00,
2013-08-05 15:07:00,73.7,61.7,29.99,WSW,238,5.0,5.0,66,0.00,,---,0.01,VWS V14.01,2013-08-05 19:07:00,
2013-08-05 15:12:00,72.9,60.5,30.00,WNW,284,3.0,5.0,65,0.00,,---,0.01,VWS V14.01,2013-08-05 19:12:00,
2013-08-05 15:17:00,73.1,60.7,30.00,WNW,299,3.0,5.0,65,0.00,,---,0.01,VWS V14.01,2013-08-05 19:17:00,
2013-08-05 15:22:00,72.5,60.1,30.00,SW,236,0.0,5.0,65,0.00,,---,0.01,VWS V14.01,2013-08-05 19:22:00,
2013-08-05 15:28:00,72.2,60.2,30.00,West,273,1.0,5.0,66,0.00,,---,0.01,VWS V14.01,2013-08-05 19:28:00,
2013-08-05 15:33:00,71.8,59.8,30.00,WNW,290,0.0,4.0,66,0.00,,---,0.01,VWS V14.01,2013-08-05 19:33:00,
2013-08-05 15:38:00,71.9,60.8,29.99,SW,233,2.0,4.0,68,0.00,,---,0.01,VWS V14.01,2013-08-05 19:38:00,
2013-08-05 15:43:00,72.1,61.8,29.99,SW,225,0.0,4.0,70,0.00,,---,0.01,VWS V14.01,2013-08-05 19:43:00,
2013-08-05 15:48:00,72.3,61.6,29.99,West,264,0.0,4.0,69,0.00,,---,0.01,VWS V14.01,2013-08-05 19:48:00,
2013-08-05 15:53:00,72.2,59.8,29.99,SSW,211,0.0,4.0,65,0.00,,---,0.01,VWS V14.01,2013-08-05 19:53:00,
2013-08-05 15:58:00,72.3,60.7,29.98,SSE,163,0.0,4.0,67,0.00,,---,0.01,VWS V14.01,2013-08-05 19:58:00,
2013-08-05 16:04:00,72.6,60.2,29.98,WSW,240,1.0,1.0,65,0.00,,---,0.01,VWS V14.01,2013-08-05 20:04:00,
2013-08-05 16:09:00,72.7,61.5,29.98,SSW,205,1.0,2.0,68,0.00,,---,0.01,VWS V14.01,2013-08-05 20:09:00,
2013-08-05 16:14:00,73.3,60.8,29.98,ESE,110,0.0,3.0,65,0.00,,---,0.01,VWS V14.01,2013-08-05 20:14:00,
2013-08-05 16:19:00,74.1,60.7,29.99,NNW,338,2.0,4.0,63,0.00,,---,0.01,VWS V14.01,2013-08-05 20:19:00,
2013-08-05 16:24:00,73.6,61.1,29.98,WNW,286,0.0,4.0,65,0.00,,---,0.01,VWS V14.01,2013-08-05 20:24:00,
2013-08-05 16:29:00,73.3,60.4,29.98,WNW,297,1.0,4.0,64,0.00,,---,0.01,VWS V14.01,2013-08-05 20:29:00,
2013-08-05 16:34:00,72.9,60.9,29.98,West,274,0.0,3.0,66,0.00,,---,0.01,VWS V14.01,2013-08-05 20:34:00,
2013-08-05 16:39:00,73.1,61.1,29.98,NNE,27,1.0,4.0,66,0.00,,---,0.01,VWS V14.01,2013-08-05 20:39:00,
2013-08-05 16:44:00,73.2,61.2,29.98,SSW,204,0.0,4.0,66,0.00,,---,0.01,VWS V14.01,2013-08-05 20:44:00,
2013-08-05 16:49:00,73.2,61.6,29.98,North,358,1.0,4.0,67,0.00,,---,0.01,VWS V14.01,2013-08-05 20:49:00,
2013-08-05 16:54:00,73.7,62.5,29.98,NW,321,1.0,4.0,68,0.00,,---,0.01,VWS V14.01,2013-08-05 20:54:00,
2013-08-05 16:59:00,74.4,62.3,29.98,WNW,302,0.0,0.0,66,0.00,,---,0.01,VWS V14.01,2013-08-05 20:59:00,
2013-08-05 17:04:00,74.5,62.0,29.98,NW,323,1.0,5.0,65,0.00,,---,0.01,VWS V14.01,2013-08-05 21:04:00,
2013-08-05 17:10:00,74.5,62.0,29.98,South,176,2.0,5.0,65,0.00,,---,0.01,VWS V14.01,2013-08-05 21:10:00,
2013-08-05 17:15:00,74.8,60.5,29.98,SW,224,5.0,5.0,61,0.00,,---,0.01,VWS V14.01,2013-08-05 21:15:00,
2013-08-05 17:20:00,75.0,62.0,29.98,North,358,5.0,6.0,64,0.00,,---,0.01,VWS V14.01,2013-08-05 21:20:00,
2013-08-05 17:25:00,74.5,62.0,29.98,WNW,288,2.0,6.0,65,0.00,,---,0.01,VWS V14.01,2013-08-05 21:25:00,
2013-08-05 17:30:00,73.9,61.8,29.98,WSW,239,1.0,2.0,66,0.00,,---,0.01,VWS V14.01,2013-08-05 21:30:00,
2013-08-05 17:35:00,73.5,62.3,29.98,WSW,253,0.0,4.0,68,0.00,,---,0.01,VWS V14.01,2013-08-05 21:35:00,
2013-08-05 17:40:00,73.4,60.9,29.98,WNW,301,1.0,4.0,65,0.00,,---,0.01,VWS V14.01,2013-08-05 21:40:00,
2013-08-05 17:45:00,73.7,61.2,29.98,WNW,290,1.0,5.0,65,0.00,,---,0.01,VWS V14.01,2013-08-05 21:45:00,
2013-08-05 17:50:00,73.8,61.7,29.98,West,274,3.0,5.0,66,0.00,,---,0.01,VWS V14.01,2013-08-05 21:50:00,
2013-08-05 17:55:00,73.5,60.6,29.98,SW,221,0.0,6.0,64,0.00,,---,0.01,VWS V14.01,2013-08-05 21:55:00,
2013-08-05 18:00:00,73.8,62.6,29.98,SW,236,1.0,2.0,68,0.00,,---,0.01,VWS V14.01,2013-08-05 22:00:00,
2013-08-05 18:05:00,74.4,62.7,29.99,West,281,1.0,2.0,67,0.00,,---,0.01,VWS V14.01,2013-08-05 22:05:00,
2013-08-05 18:10:00,74.6,62.5,29.98,West,269,1.0,2.0,66,0.00,,---,0.01,VWS V14.01,2013-08-05 22:10:00,
2013-08-05 18:16:00,74.1,61.6,29.98,WNW,302,1.0,5.0,65,0.00,,---,0.01,VWS V14.01,2013-08-05 22:16:00,
2013-08-05 18:21:00,73.2,62.0,29.98,WNW,287,0.0,5.0,68,0.00,,---,0.01,VWS V14.01,2013-08-05 22:21:00,
2013-08-05 18:26:00,72.5,62.2,29.98,WNW,297,1.0,5.0,70,0.00,,---,0.01,VWS V14.01,2013-08-05 22:26:00,
2013-08-05 18:31:00,71.9,62.4,29.98,NNW,341,1.0,2.0,72,0.00,,---,0.01,VWS V14.01,2013-08-05 22:31:00,
2013-08-05 18:36:00,71.6,62.5,29.98,NNE,23,3.0,3.0,73,0.00,,---,0.01,VWS V14.01,2013-08-05 22:36:00,
2013-08-05 18:41:00,71.0,61.9,29.98,NW,319,3.0,5.0,73,0.00,,---,0.01,VWS V14.01,2013-08-05 22:41:00,
2013-08-05 18:46:00,70.4,61.7,29.98,West,277,0.0,5.0,74,0.00,,---,0.01,VWS V14.01,2013-08-05 22:46:00,
2013-08-05 18:51:00,70.2,61.9,29.99,WNW,287,1.0,5.0,75,0.00,,---,0.01,VWS V14.01,2013-08-05 22:51:00,
2013-08-05 18:56:00,69.9,61.2,29.98,NNW,338,1.0,5.0,74,0.00,,---,0.01,VWS V14.01,2013-08-05 22:56:00,
2013-08-05 19:01:00,70.0,62.1,29.99,North,4,5.0,5.0,76,0.00,,---,0.01,VWS V14.01,2013-08-05 23:01:00,
2013-08-05 19:07:00,70.0,61.7,29.99,WNW,297,1.0,5.0,75,0.00,,---,0.01,VWS V14.01,2013-08-05 23:07:00,
2013-08-05 19:12:00,69.7,60.7,29.99,North,358,1.0,7.0,73,0.00,,---,0.01,VWS V14.01,2013-08-05 23:12:00,
2013-08-05 19:17:00,69.2,60.6,29.99,NW,307,1.0,8.0,74,0.00,,---,0.01,VWS V14.01,2013-08-05 23:17:00,
2013-08-05 19:23:00,68.8,60.6,29.99,WNW,301,1.0,8.0,75,0.00,,---,0.01,VWS V14.01,2013-08-05 23:23:00,
2013-08-05 19:28:00,68.2,60.3,29.99,NNW,345,0.0,8.0,76,0.00,,---,0.01,VWS V14.01,2013-08-05 23:28:00,
2013-08-05 19:33:00,67.6,60.1,29.99,WNW,287,1.0,5.0,77,0.00,,---,0.01,VWS V14.01,2013-08-05 23:33:00,
2013-08-05 19:38:00,67.0,59.9,29.99,NNW,347,0.0,5.0,78,0.00,,---,0.01,VWS V14.01,2013-08-05 23:38:00,
2013-08-05 19:44:00,66.5,59.8,29.99,NW,324,0.0,5.0,79,0.00,,---,0.01,VWS V14.01,2013-08-05 23:44:00,
2013-08-05 19:49:00,66.2,59.9,29.99,NNE,12,0.0,5.0,80,0.00,,---,0.01,VWS V14.01,2013-08-05 23:49:00,
2013-08-05 19:54:00,65.7,59.7,29.99,NNW,344,0.0,5.0,81,0.00,,---,0.01,VWS V14.01,2013-08-05 23:54:00,
2013-08-05 19:59:00,65.2,59.2,29.99,NW,314,1.0,5.0,81,0.00,,---,0.01,VWS V14.01,2013-08-05 23:59:00,
2013-08-05 20:04:00,64.9,59.3,29.99,NNW,346,0.0,2.0,82,0.00,,---,0.01,VWS V14.01,2013-08-06 00:04:00,
2013-08-05 20:09:00,64.6,59.3,29.99,WNW,302,0.0,3.0,83,0.00,,---,0.01,VWS V14.01,2013-08-06 00:09:00,
2013-08-05 20:14:00,64.2,58.9,29.99,WNW,302,1.0,3.0,83,0.00,,---,0.01,VWS V14.01,2013-08-06 00:14:00,
2013-08-05 20:19:00,63.8,58.9,29.99,WNW,302,0.0,3.0,84,0.00,,---,0.01,VWS V14.01,2013-08-06 00:19:00,
2013-08-05 20:24:00,63.5,58.6,29.99,NNW,332,1.0,3.0,84,0.00,,---,0.01,VWS V14.01,2013-08-06 00:24:00,
2013-08-05 20:29:00,63.3,58.7,29.99,NNW,331,0.0,0.0,85,0.00,,---,0.01,VWS V14.01,2013-08-06 00:29:00,
2013-08-05 20:35:00,63.0,58.4,30.00,NNW,331,0.0,1.0,85,0.00,,---,0.01,VWS V14.01,2013-08-06 00:35:00,
2013-08-05 20:40:00,62.7,58.1,30.00,NNW,332,0.0,1.0,85,0.00,,---,0.01,VWS V14.01,2013-08-06 00:40:00,
2013-08-05 20:45:00,62.4,57.8,30.00,NNW,332,0.0,1.0,85,0.00,,---,0.01,VWS V14.01,2013-08-06 00:45:00,
2013-08-05 20:50:00,62.2,58.0,30.00,NNW,332,0.0,1.0,86,0.00,,---,0.01,VWS V14.01,2013-08-06 00:50:00,
2013-08-05 20:55:00,62.0,57.8,30.00,NNW,332,0.0,1.0,86,0.00,,---,0.01,VWS V14.01,2013-08-06 00:55:00,
2013-08-05 21:00:00,61.8,57.6,30.00,NNW,332,0.0,0.0,86,0.00,,---,0.01,VWS V14.01,2013-08-06 01:00:00,
2013-08-05 21:05:00,61.5,57.3,30.00,NNW,332,0.0,0.0,86,0.00,,---,0.01,VWS V14.01,2013-08-06 01:05:00,
2013-08-05 21:10:00,61.1,57.2,29.99,NNW,332,0.0,0.0,87,0.00,,---,0.01,VWS V14.01,2013-08-06 01:10:00,
2013-08-05 21:15:00,60.7,57.1,29.99,NNW,332,0.0,0.0,88,0.00,,---,0.01,VWS V14.01,2013-08-06 01:15:00,
2013-08-05 21:21:00,60.2,57.0,29.99,NNW,332,0.0,0.0,89,0.00,,---,0.01,VWS V14.01,2013-08-06 01:21:00,
2013-08-05 21:26:00,59.9,57.0,29.99,NNW,332,0.0,0.0,90,0.00,,---,0.01,VWS V14.01,2013-08-06 01:26:00,
2013-08-05 21:31:00,59.7,56.8,29.99,NNW,332,0.0,0.0,90,0.00,,---,0.01,VWS V14.01,2013-08-06 01:31:00,
2013-08-05 21:36:00,59.4,56.8,29.99,NNW,332,0.0,0.0,91,0.00,,---,0.01,VWS V14.01,2013-08-06 01:36:00,
2013-08-05 21:41:00,59.1,56.8,29.99,NNW,332,0.0,0.0,92,0.00,,---,0.01,VWS V14.01,2013-08-06 01:41:00,
2013-08-05 21:46:00,58.9,56.9,29.99,NNW,332,0.0,0.0,93,0.00,,---,0.01,VWS V14.01,2013-08-06 01:46:00,
2013-08-05 21:52:00,58.7,56.7,29.98,NNW,332,0.0,0.0,93,0.00,,---,0.01,VWS V14.01,2013-08-06 01:52:00,
2013-08-05 21:57:00,58.6,56.9,29.98,NNW,332,0.0,0.0,94,0.00,,---,0.01,VWS V14.01,2013-08-06 01:57:00,
2013-08-05 22:02:00,58.6,56.9,29.98,NNW,332,0.0,0.0,94,0.00,,---,0.01,VWS V14.01,2013-08-06 02:02:00,
2013-08-05 22:07:00,58.5,56.8,29.98,NNW,332,0.0,0.0,94,0.00,,---,0.01,VWS V14.01,2013-08-06 02:07:00,
2013-08-05 22:12:00,58.4,57.0,29.98,NNW,332,0.0,0.0,95,0.00,,---,0.01,VWS V14.01,2013-08-06 02:12:00,
2013-08-05 22:17:00,58.2,56.8,29.98,NNW,332,0.0,0.0,95,0.00,,---,0.01,VWS V14.01,2013-08-06 02:17:00,
2013-08-05 22:22:00,58.0,56.6,29.98,NNW,332,0.0,0.0,95,0.00,,---,0.01,VWS V14.01,2013-08-06 02:22:00,
2013-08-05 22:27:00,57.9,56.5,29.98,NNW,332,0.0,0.0,95,0.00,,---,0.01,VWS V14.01,2013-08-06 02:27:00,
2013-08-05 22:32:00,57.9,56.8,29.98,NNW,332,0.0,0.0,96,0.00,,---,0.01,VWS V14.01,2013-08-06 02:32:00,
2013-08-05 22:37:00,57.8,56.7,29.98,NNW,331,0.0,0.0,96,0.00,,---,0.01,VWS V14.01,2013-08-06 02:37:00,
2013-08-05 22:42:00,57.8,56.7,29.98,NNW,332,0.0,0.0,96,0.00,,---,0.01,VWS V14.01,2013-08-06 02:42:00,
2013-08-05 22:47:00,57.7,56.9,29.98,NNW,332,0.0,0.0,97,0.00,,---,0.01,VWS V14.01,2013-08-06 02:47:00,
2013-08-05 22:52:00,57.6,56.8,29.97,NNW,332,0.0,0.0,97,0.00,,---,0.01,VWS V14.01,2013-08-06 02:52:00,
2013-08-05 22:57:00,57.5,56.7,29.97,NNW,332,0.0,0.0,97,0.00,,---,0.01,VWS V14.01,2013-08-06 02:57:00,
2013-08-05 23:02:00,57.3,56.5,29.98,NNW,331,0.0,0.0,97,0.00,,---,0.01,VWS V14.01,2013-08-06 03:02:00,
2013-08-05 23:07:00,57.1,56.3,29.98,NNW,332,0.0,0.0,97,0.00,,---,0.01,VWS V14.01,2013-08-06 03:07:00,
2013-08-05 23:12:00,57.0,56.2,29.97,NNW,332,0.0,0.0,97,0.00,,---,0.01,VWS V14.01,2013-08-06 03:12:00,
2013-08-05 23:17:00,56.9,56.1,29.98,NNW,332,0.0,0.0,97,0.00,,---,0.01,VWS V14.01,2013-08-06 03:17:00,
2013-08-05 23:23:00,56.8,56.0,29.98,NNW,332,0.0,0.0,97,0.00,,---,0.01,VWS V14.01,2013-08-06 03:23:00,
2013-08-05 23:28:00,56.6,55.8,29.98,NNW,332,0.0,0.0,97,0.00,,---,0.01,VWS V14.01,2013-08-06 03:28:00,
2013-08-05 23:33:00,56.3,55.5,29.98,NNW,331,0.0,0.0,97,0.00,,---,0.01,VWS V14.01,2013-08-06 03:33:00,
2013-08-05 23:38:00,56.2,55.4,29.98,NNW,332,0.0,0.0,97,0.00,,---,0.01,VWS V14.01,2013-08-06 03:38:00,
2013-08-05 23:43:00,56.5,55.9,29.98,NNW,331,0.0,0.0,98,0.00,,---,0.01,VWS V14.01,2013-08-06 03:43:00,
2013-08-05 23:49:00,56.5,55.9,29.98,NNW,332,0.0,0.0,98,0.00,,---,0.01,VWS V14.01,2013-08-06 03:49:00,
2013-08-05 23:54:00,56.5,55.9,29.98,NNW,332,0.0,0.0,98,0.00,,---,0.01,VWS V14.01,2013-08-06 03:54:00,
2013-08-05 23:59:00,56.4,55.8,29.98,NNW,332,0.0,0.0,98,0.00,,---,0.01,VWS V14.01,2013-08-06 03:59:00,